Change the Weather History Date:

Monday, November 22, 2010

  Actual Average Record
Temperature  
Mean Temperature 34 °F -  
Max Temperature 40 °F 49 °F 55 °F (2004)
Min Temperature 29 °F 39 °F 28 °F (2010)
Degree Days  
Heating Degree Days 30    
Moisture  
Dew Point 33 °F    
Average Humidity 96    
Maximum Humidity 100    
Minimum Humidity 87    
Precipitation  
Precipitation 0.00 in 0.13 in - ()
Sea Level Pressure  
Sea Level Pressure 30.00 in    
Wind  
Wind Speed 5 mph ()    
Max Wind Speed 11 mph    
Max Gust Speed -    
Visibility 6.4 miles    
Events Fog    
Averages and records for this station are not official NWS values.
T = Trace of Precipitation, MM = Missing Value Source: Averaged Metar Reports

Daily Weather History Graph

Daily Weather History Graph

Search for Another Location

Airport or City:

Trip Planner

Search our weather history database for the weather conditions in past years. The results will help you decide how hot, cold, wet, or windy it might be!

Date:

Astronomy

Nov. 22, 2010 Rise Set
Actual Time 8:10 AM GMT 4:32 PM GMT
Civil Twilight 7:30 AM GMT 5:12 PM GMT
Nautical Twilight 6:48 AM GMT 5:54 PM GMT
Astronomical Twilight 6:07 AM GMT 6:35 PM GMT
Moon 4:46 PM GMT (11/22) 9:13 AM GMT (11/22)
Length of Visible Light 9h 41m
Length of Day
8h 22m
Full, 99% of the Moon is Illuminated
Nov 22
Full
Nov 28
Last Quarter
Dec 5
New
Dec 13
First Quarter
Dec 21
Full

Hourly Weather History & Observations

Time (GMT) Temp. Windchill Dew Point Humidity Pressure Visibility Wind Dir Wind Speed Gust Speed Precip Events Conditions
12:00 AM 32 °F - 31 °F 93% 30.05 in 12 mi North 6.7 mph - -   Scattered Clouds
12:00 AM 32.0 °F 26.4 °F 30.2 °F 93% 30.04 in 6.2 mi North 5.8 mph - N/A   Partly Cloudy
12:30 AM 32.0 °F 28.7 °F 32.0 °F 100% 30.04 in 6.2 mi North 3.5 mph - N/A   Partly Cloudy
1:00 AM 32.0 °F 26.4 °F 30.2 °F 93% 30.04 in 6.2 mi NNW 5.8 mph - N/A   Partly Cloudy
1:30 AM 32.0 °F 28.7 °F 30.2 °F 93% 30.01 in 6.2 mi North 3.5 mph - N/A   Partly Cloudy
2:00 AM 30.2 °F - 30.2 °F 100% 30.01 in 6.2 mi NW 2.3 mph - N/A   Partly Cloudy
2:30 AM 32.0 °F - 30.2 °F 93% 30.01 in 6.2 mi NNW 2.3 mph - N/A   Partly Cloudy
3:00 AM 30.2 °F 26.7 °F 28.4 °F 93% 30.01 in 6.2 mi North 3.5 mph - N/A   Partly Cloudy
4:00 AM 30.2 °F 25.4 °F 30.2 °F 100% 30.01 in 6.2 mi NNE 4.6 mph - N/A   Partly Cloudy
4:30 AM 30.2 °F - 30.2 °F 100% 30.01 in 6.2 mi NNE 2.3 mph - N/A   Partly Cloudy
5:00 AM 28.4 °F 21.2 °F 28.4 °F 100% 29.98 in 6.2 mi NNW 6.9 mph - N/A   Partly Cloudy
5:30 AM 30.2 °F 21.9 °F 30.2 °F 100% 29.98 in 6.2 mi NNW 9.2 mph - N/A   Partly Cloudy
6:00 AM 31 °F - 30 °F 94% 30.01 in 12 mi NNE 4.5 mph - -   Scattered Clouds
6:00 AM 30.2 °F 25.4 °F 30.2 °F 100% 29.98 in 6.2 mi NNE 4.6 mph - N/A   Partly Cloudy
6:30 AM 30.2 °F - 30.2 °F 100% 29.98 in 6.2 mi WSW 1.2 mph - N/A   Partly Cloudy
7:00 AM 30.2 °F 24.3 °F 28.4 °F 93% 29.98 in 6.2 mi NNW 5.8 mph - N/A   Partly Cloudy
7:30 AM 30.2 °F - 30.2 °F 100% 29.98 in 6.2 mi West 2.3 mph - N/A   Partly Cloudy
8:00 AM 30.2 °F 22.6 °F 30.2 °F 100% 29.98 in 6.2 mi NNW 8.1 mph - N/A   Scattered Clouds
8:30 AM 32.0 °F 24.2 °F 32.0 °F 100% 29.98 in 6.2 mi NW 9.2 mph - N/A   Scattered Clouds
9:00 AM 32.0 °F 24.2 °F 32.0 °F 100% 29.98 in 6.2 mi NNW 9.2 mph - N/A   Mostly Cloudy
9:30 AM 33.8 °F 27.0 °F 33.8 °F 100% 29.98 in 6.2 mi NW 8.1 mph - N/A   Mostly Cloudy
10:00 AM 33.8 °F 28.6 °F 33.8 °F 100% 29.98 in 6.2 mi NW 5.8 mph - N/A   Mostly Cloudy
10:30 AM 35.6 °F 29.9 °F 35.6 °F 100% 29.98 in 6.2 mi NNW 6.9 mph - N/A   Mostly Cloudy
11:00 AM 35.6 °F 29.2 °F 35.6 °F 100% 29.98 in 6.2 mi NNW 8.1 mph - N/A   Mostly Cloudy
11:30 AM 37.4 °F 32.1 °F 37.4 °F 100% 29.98 in 6.2 mi NW 6.9 mph - N/A   Mostly Cloudy
12:00 PM 39 °F - 37 °F 90% 29.99 in 19 mi NNW 11.2 mph - -   Mostly Cloudy
12:00 PM 39.2 °F 32.5 °F 37.4 °F 93% 29.98 in 6.2 mi NNW 10.4 mph - N/A   Mostly Cloudy
12:30 PM 39.2 °F 33.0 °F 37.4 °F 93% 29.98 in 6.2 mi North 9.2 mph - N/A   Mostly Cloudy
1:00 PM 39.2 °F 34.2 °F 37.4 °F 93% 29.98 in 6.2 mi NNW 6.9 mph - N/A   Mostly Cloudy
1:30 PM 39.2 °F 34.2 °F 37.4 °F 93% 29.98 in 6.2 mi NNW 6.9 mph - N/A   Mostly Cloudy
2:00 PM 39.2 °F 35.0 °F 37.4 °F 93% 29.98 in 6.2 mi North 5.8 mph - N/A   Mostly Cloudy
2:30 PM 41.0 °F 37.1 °F 37.4 °F 87% 29.95 in 6.2 mi North 5.8 mph - N/A   Mostly Cloudy
3:00 PM 39.2 °F 35.9 °F 37.4 °F 93% 29.98 in 6.2 mi NNW 4.6 mph - N/A   Scattered Clouds
3:30 PM 39.2 °F 34.2 °F 37.4 °F 93% 29.98 in 6.2 mi NNW 6.9 mph - N/A   Mostly Cloudy
4:00 PM 39.2 °F 35.9 °F 35.6 °F 87% 29.98 in 6.2 mi NNW 4.6 mph - N/A   Scattered Clouds
4:30 PM 37.4 °F 33.8 °F 35.6 °F 93% 29.98 in 6.2 mi NNW 4.6 mph - N/A   Partly Cloudy
5:00 PM 37.4 °F - 35.6 °F 93% 29.98 in 6.2 mi West 1.2 mph - N/A   Partly Cloudy
5:30 PM 35.6 °F 30.7 °F 33.8 °F 93% 29.98 in 6.2 mi North 5.8 mph - N/A   Partly Cloudy
6:00 PM 35 °F - 34 °F 92% 30.00 in 12 mi South 2.2 mph - -  
6:00 PM 35.6 °F - 33.8 °F 93% 29.98 in - South 1.2 mph - N/A   Clear
6:30 PM 35.6 °F - 33.8 °F 93% 29.98 in 6.2 mi NNW 2.3 mph - N/A   Partly Cloudy
7:00 PM 33.8 °F 28.6 °F 33.8 °F 100% 30.01 in 6.2 mi NW 5.8 mph - N/A   Partly Cloudy
7:30 PM 33.8 °F 28.6 °F 33.8 °F 100% 30.01 in 6.2 mi NNW 5.8 mph - N/A   Partly Cloudy
8:00 PM 33.8 °F 28.6 °F 33.8 °F 100% 30.01 in 6.2 mi NNW 5.8 mph - N/A   Partly Cloudy
8:30 PM 33.8 °F 28.6 °F 33.8 °F 100% 30.01 in 6.2 mi NNW 5.8 mph - N/A   Partly Cloudy
9:00 PM 33.8 °F 27.0 °F 33.8 °F 100% 30.01 in 6.2 mi NW 8.1 mph - N/A   Partly Cloudy
9:30 PM 33.8 °F 30.8 °F 33.8 °F 100% 30.01 in 1.9 mi NNW 3.5 mph - N/A Fog Fog
10:00 PM 33.8 °F 29.6 °F 33.8 °F 100% 30.01 in 0.4 mi WNW 4.6 mph - N/A Fog Fog
10:30 PM 33.8 °F - 32.0 °F 93% 30.01 in 0.3 mi NNW 2.3 mph - N/A Fog Fog
11:00 PM 32.0 °F 28.7 °F 32.0 °F 100% 30.04 in 0.1 mi WNW 3.5 mph - N/A Fog Fog
11:30 PM 32.0 °F 26.4 °F 32.0 °F 100% 30.01 in - NNW 5.8 mph - N/A Fog Fog